Weather observations for the past three days for
Lincoln Regional Karl Harder Field
Imperial (Metric)
Date Time (pdt) Wind (mph) Vis. (mi.) Weather Sky Cond. Temperature (ºF) Relative Humidity Wind Chill (°F) Heat Index (°F) Pressure Precipitation (in)
Air Dwpt 6 hour altimeter (in) sea level (mb) 1 hr 3 hr 6 hr
Max. Min.
17 22:35 Calm 10.00 Fair CLR 73.4 48.2 41% 29.91 0.0
17 22:15 Calm 10.00 Fair CLR 75.2 46.4 36% 77 29.91 0.0
17 21:55 Calm 10.00 Fair CLR 73.4 46.4 38% 29.91 0.0
17 21:35 NE 5 10.00 Fair CLR 71.6 44.6 38% 29.91 0.0
17 21:15 Calm 10.00 Fair CLR 77 48.2 36% 78 29.91 0.0
17 20:55 Calm 10.00 Fair CLR 80.6 50 34% 80 29.9 0.0
17 20:35 Calm 10.00 Fair CLR 82.4 46.4 28% 81 29.9 0.0
17 20:15 Calm 10.00 Fair CLR 86 44.6 24% 83 29.9 0.0
17 19:55 Calm 10.00 Fair CLR 87.8 42.8 21% 84 29.9 0.0
17 19:35 W 5 10.00 Fair CLR 89.6 42.8 20% 86 29.9 0.0
17 19:15 SW 5 10.00 Fair CLR 89.6 44.6 21% 86 29.9 0.0
17 18:55 SW 3 10.00 Fair CLR 91.4 44.6 20% 88 29.9 0.0
17 18:35 W 5 10.00 Fair CLR 91.4 46.4 21% 88 29.9 0.0
17 18:15 NW 6 10.00 Fair CLR 91.4 46.4 21% 88 29.9 0.0
17 17:55 W 3 10.00 Fair CLR 91.4 42.8 18% 88 29.91 0.0
17 17:35 NW 3 10.00 Fair CLR 91.4 41 17% 87 29.91 0.0
17 17:15 W 3 10.00 Fair CLR 91.4 41 17% 87 29.91 0.0
17 16:55 Calm 10.00 Fair CLR 93.2 39.2 15% 89 29.92 0.0
17 16:35 W 5 10.00 Fair CLR 91.4 35.6 14% 87 29.93 0.0
17 16:15 SW 5 10.00 Fair CLR 91.4 39.2 16% 87 29.93 0.0
17 15:55 SW 3 10.00 Fair CLR 89.6 37.4 16% 86 29.94 0.0
17 15:35 Calm 10.00 Fair CLR 89.6 41 18% 86 29.94 0.0
17 15:15 Calm 10.00 Fair CLR 89.6 39.2 17% 86 29.95 0.0
17 14:55 SW 5 10.00 Fair CLR 87.8 44.6 22% 85 29.96 0.0
17 14:35 SW 6 10.00 Fair CLR 86 46.4 25% 83 29.96 0.0
17 14:15 Calm 10.00 Fair CLR 86 48.2 27% 83 29.97 0.0
17 13:55 SW 6 10.00 Fair CLR 84.2 50 31% 82 29.98 0.0
17 13:35 W 6 10.00 Fair CLR 82.4 51.8 35% 81 29.98 0.0
17 13:15 W 5 10.00 Fair CLR 82.4 50 32% 81 29.99 0.0
17 12:55 SE 3 10.00 Fair CLR 80.6 48.2 32% 80 29.99 0.0
17 12:35 S 7 10.00 Fair CLR 80.6 48.2 32% 80 30 0.0
17 12:15 S 5 10.00 Fair CLR 78.8 48.2 34% 79 30 0.0
17 11:55 SW 3 10.00 Fair CLR 77 50 39% 78 30 0.0
17 11:35 SW 7 10.00 Fair CLR 75.2 50 41% 78 30 0.0
17 11:15 Calm 10.00 Fair CLR 73.4 50 44% 30.01 0.0
17 10:55 SE 5 10.00 Fair CLR 71.6 50 47% 30.01 0.0
17 10:35 SW 6 10.00 Fair CLR 71.6 50 47% 30.01 0.0
17 10:15 Calm 10.00 Fair CLR 69.8 50 50% 30.01 0.0
17 09:55 S 6 10.00 Fair CLR 69.8 51.8 53% 30.01 0.0
17 09:35 SW 5 10.00 Fair CLR 68 50 53% 30.01 0.0
17 09:15 S 3 10.00 Fair CLR 68 50 53% 30.01 0.0
17 08:55 SE 5 10.00 Fair CLR 66.2 50 56% 30.01 0.0
17 08:35 SE 5 10.00 Fair CLR 64.4 50 60% 30.01 0.0
17 08:15 S 6 10.00 Fair CLR 62.6 50 64% 30 0.0
17 07:55 SE 7 10.00 Fair CLR 60.8 50 68% 30 0.0
17 07:35 S 8 10.00 Fair CLR 60.8 50 68% 30 0.0
17 07:15 SE 9 10.00 Fair CLR 59 51.8 77% 29.99 0.0
17 06:55 SE 8 10.00 Fair CLR 57.2 51.8 82% 29.99 0.0
17 06:35 S 8 10.00 Fair CLR 57.2 50 77% 29.98 0.0
17 06:15 SE 8 10.00 Fair CLR 55.4 50 82% 29.98 0.0
17 05:55 SE 8 10.00 Fair CLR 55.4 50 82% 29.97 0.0
17 05:35 SE 9 10.00 Fair CLR 55.4 50 82% 29.96 0.0
17 05:15 SE 8 10.00 Fair CLR 55.4 50 82% 29.96 0.0
17 04:55 SE 9 10.00 Fair CLR 55.4 50 82% 29.96 0.0
17 04:35 S 9 10.00 Fair CLR 55.4 50 82% 29.96 0.0
17 04:15 S 10 10.00 Fair CLR 55.4 50 82% 29.95 0.0
17 03:55 SE 13 10.00 Fair CLR 59 50 72% 29.95 0.0
17 03:35 S 13 10.00 Fair CLR 59 50 72% 29.95 0.0
17 03:15 SE 13 10.00 Fair CLR 59 50 72% 29.95 0.0
17 02:55 SE 13 10.00 Fair CLR 59 50 72% 29.96 0.0
17 02:35 SE 10 10.00 Fair CLR 59 48.2 68% 29.96 0.0
17 02:15 SE 14 G 17 10.00 Fair CLR 60.8 48.2 63% 29.95 0.0
17 01:55 SE 12 10.00 Fair CLR 60.8 48.2 63% 29.96 0.0
17 01:35 SE 14 10.00 Fair CLR 62.6 46.4 56% 29.95 0.0
17 01:15 SE 15 10.00 Fair CLR 62.6 46.4 56% 29.96 0.0
17 00:55 SE 15 10.00 Fair CLR 62.6 46.4 56% 29.96 0.0
17 00:35 SE 14 10.00 Fair CLR 62.6 46.4 56% 29.96 0.0
17 00:15 SE 13 10.00 Fair CLR 64.4 46.4 52% 29.96 0.0
16 23:55 SE 9 G 16 10.00 Fair CLR 64.4 46.4 52% 29.96 0.0
16 23:35 SE 15 G 20 10.00 Fair CLR 64.4 46.4 52% 29.95 0.0
16 23:15 SE 15 10.00 Fair CLR 66.2 46.4 49% 29.94 0.0
16 22:55 S 13 10.00 Fair CLR 66.2 46.4 49% 29.95 0.0
16 22:35 S 12 10.00 Fair CLR 68 46.4 46% 29.94 0.0
16 22:15 S 12 10.00 Fair CLR 68 46.4 46% 29.93 0.0
16 21:55 S 13 10.00 Fair CLR 69.8 48.2 46% 29.93 0.0
16 21:40 S 12 10.00 Fair CLR 71.6 48.2 44% 29.92 0.0
16 21:15 S 10 10.00 Fair CLR 73.4 46.4 38% 29.91 0.0
16 20:55 S 14 G 20 10.00 Fair CLR 75.2 42.8 31% 77 29.91 0.0
16 20:35 S 10 10.00 Fair CLR 77 39.2 26% 77 29.9 0.0
16 20:15 S 9 10.00 Fair CLR 78.8 39.2 24% 78 29.9 0.0
16 19:55 S 12 10.00 Fair CLR 82.4 41 23% 80 29.89 0.0
16 19:35 S 9 10.00 Fair CLR 84.2 39.2 20% 81 29.89 0.0
16 19:15 S 12 10.00 Fair CLR 86 42.8 22% 83 29.88 0.0
16 18:55 S 13 10.00 Fair CLR 87.8 41 19% 84 29.88 0.0
16 18:35 S 12 10.00 Fair CLR 87.8 42.8 21% 84 29.88 0.0
16 18:15 S 12 10.00 Fair CLR 89.6 44.6 21% 86 29.87 0.0
16 17:55 S 13 10.00 Fair CLR 89.6 46.4 22% 86 29.87 0.0
16 17:35 S 12 G 16 10.00 Fair CLR 89.6 46.4 22% 86 29.88 0.0
16 17:15 S 9 10.00 Fair CLR 91.4 42.8 18% 88 29.88 0.0
16 16:55 SW 9 10.00 Fair CLR 91.4 44.6 20% 88 29.89 0.0
16 16:35 S 9 10.00 Fair CLR 91.4 42.8 18% 88 29.89 0.0
16 16:15 S 9 10.00 Fair CLR 91.4 41 17% 87 29.89 0.0
16 15:55 SW 6 10.00 Fair CLR 91.4 41 17% 87 29.9 0.0
16 15:35 SW 8 10.00 Fair CLR 91.4 41 17% 87 29.91 0.0
16 15:15 S 8 10.00 Fair CLR 89.6 42.8 20% 86 29.91 0.0
16 14:55 SW 9 10.00 Fair CLR 89.6 42.8 20% 86 29.92 0.0
16 14:35 SW 8 10.00 Fair CLR 87.8 46.4 24% 85 29.93 0.0
16 14:15 SW 9 10.00 Fair CLR 87.8 46.4 24% 85 29.93 0.0
16 13:55 S 10 G 18 10.00 Fair CLR 87.8 44.6 22% 85 29.94 0.0
16 13:35 S 10 10.00 Fair CLR 86 46.4 25% 83 29.94 0.0
16 13:15 S 10 10.00 Fair CLR 86 46.4 25% 83 29.94 0.0
16 12:55 S 8 10.00 Fair CLR 86 46.4 25% 83 29.95 0.0
16 12:35 SW 12 10.00 Fair CLR 82.4 46.4 28% 81 29.95 0.0
16 12:15 S 6 10.00 Fair CLR 82.4 44.6 26% 81 29.95 0.0
16 11:55 S 8 10.00 Fair CLR 80.6 46.4 30% 80 29.95 0.0
16 11:35 S 9 10.00 Fair CLR 78.8 46.4 32% 79 29.96 0.0
16 11:15 S 10 10.00 Fair CLR 78.8 48.2 34% 79 29.96 0.0
16 10:55 S 12 10.00 Fair CLR 78.8 46.4 32% 79 29.96 0.0
16 10:35 S 9 10.00 Fair CLR 77 48.2 36% 78 29.96 0.0
16 10:15 S 10 10.00 Fair CLR 77 48.2 36% 78 29.96 0.0
16 09:55 S 12 G 17 10.00 Fair CLR 73.4 48.2 41% 29.96 0.0
16 09:35 S 12 10.00 Fair CLR 71.6 48.2 44% 29.96 0.0
16 09:15 S 15 10.00 Fair CLR 71.6 48.2 44% 29.96 0.0
16 08:55 S 12 10.00 Fair CLR 69.8 46.4 43% 29.96 0.0
16 08:35 S 13 10.00 Fair CLR 69.8 46.4 43% 29.96 0.0
16 08:15 SE 13 10.00 Fair CLR 68 46.4 46% 29.96 0.0
16 07:55 SE 13 G 18 10.00 Fair CLR 66.2 46.4 49% 29.96 0.0
16 07:35 SE 13 10.00 Fair CLR 66.2 46.4 49% 29.96 0.0
16 07:15 SE 12 10.00 Fair CLR 64.4 46.4 52% 29.95 0.0
16 06:55 SE 10 10.00 Fair CLR 64.4 46.4 52% 29.95 0.0
16 06:35 S 9 G 17 10.00 Fair CLR 64.4 46.4 52% 29.94 0.0
16 06:15 S 10 10.00 Fair CLR 62.6 46.4 56% 29.94 0.0
16 05:55 S 13 10.00 Fair CLR 64.4 46.4 52% 29.93 0.0
16 05:35 S 10 10.00 Fair CLR 64.4 46.4 52% 29.93 0.0
16 05:15 S 10 10.00 Fair CLR 64.4 46.4 52% 29.92 0.0
16 04:55 S 10 10.00 Fair CLR 64.4 46.4 52% 29.91 0.0
16 04:35 S 10 10.00 Fair CLR 64.4 46.4 52% 29.91 0.0
16 04:15 S 10 10.00 Fair CLR 66.2 48.2 52% 29.91 0.0
16 03:55 S 8 10.00 Fair CLR 66.2 48.2 52% 29.91 0.0
16 03:35 S 8 10.00 Fair CLR 68 46.4 46% 29.91 0.0
16 03:15 S 9 10.00 Fair CLR 68 46.4 46% 29.91 0.0
16 02:55 SE 10 10.00 Fair CLR 69.8 48.2 46% 29.9 0.0
16 02:35 SE 9 10.00 Fair CLR 69.8 46.4 43% 29.91 0.0
16 02:15 SE 12 10.00 Fair CLR 69.8 48.2 46% 29.9 0.0
16 01:55 SE 12 10.00 Fair CLR 69.8 48.2 46% 29.9 0.0
16 01:35 SE 9 10.00 Fair CLR 69.8 50 50% 29.9 0.0
16 01:15 SE 13 10.00 Fair CLR 69.8 50 50% 29.9 0.0
16 00:55 SE 13 10.00 Fair CLR 71.6 50 47% 29.91 0.0
16 00:40 SE 9 10.00 Fair CLR 71.6 50 47% 29.91 0.0
16 00:15 S 10 10.00 Fair CLR 71.6 50 47% 29.9 0.0
15 23:55 SE 12 10.00 Fair CLR 73.4 50 44% 29.9 0.0
15 23:35 S 9 10.00 Fair CLR 73.4 50 44% 29.9 0.0
15 23:15 S 12 10.00 Fair CLR 73.4 50 44% 29.89 0.0
15 22:55 S 9 10.00 Fair CLR 75.2 50 41% 78 29.9 0.0
15 22:35 SE 10 10.00 Fair CLR 77 50 39% 78 29.9 0.0
15 22:15 SE 8 10.00 Fair CLR 75.2 50 41% 78 29.89 0.0
15 21:55 S 8 10.00 Fair CLR 75.2 50 41% 78 29.89 0.0
15 21:35 S 7 10.00 Fair CLR 77 50 39% 78 29.89 0.0
15 21:15 S 6 10.00 Fair CLR 77 51.8 42% 78 29.88 0.0
15 20:55 SW 7 10.00 Fair CLR 80.6 50 34% 80 29.88 0.0
15 20:35 S 3 10.00 Fair CLR 80.6 50 34% 80 29.88 0.0
15 20:15 S 9 10.00 Fair CLR 84.2 48.2 29% 82 29.87 0.0
15 19:55 SW 9 10.00 Fair CLR 86 50 29% 84 29.87 0.0
15 19:35 SW 9 10.00 Fair CLR 89.6 48.2 24% 86 29.86 0.0
15 19:15 SW 10 10.00 Fair CLR 91.4 46.4 21% 88 29.86 0.0
15 18:55 SW 8 10.00 Fair CLR 93.2 46.4 20% 90 29.86 0.0
15 18:35 SW 9 10.00 Fair CLR 95 46.4 19% 91 29.87 0.0
15 17:55 SW 8 10.00 Fair CLR 96.8 44.6 17% 93 29.87 0.0
15 17:35 SW 6 10.00 Fair CLR 96.8 44.6 17% 93 29.88 0.0
15 17:15 SW 8 10.00 Fair CLR 96.8 46.4 18% 93 29.88 0.0
15 16:55 SW 5 10.00 Fair CLR 96.8 48.2 19% 93 29.88 0.0
15 16:35 SW 6 10.00 Fair CLR 95 48.2 20% 92 29.89 0.0
15 16:15 S 8 10.00 Fair CLR 95 50 22% 92 29.89 0.0
15 15:55 S 7 10.00 Fair CLR 95 50 22% 92 29.9 0.0
15 15:35 S 6 10.00 Fair CLR 95 50 22% 92 29.9 0.0
15 15:15 S 7 10.00 Fair CLR 95 50 22% 92 29.91 0.0
15 14:55 SW 7 10.00 Fair CLR 91.4 51.8 26% 89 29.92 0.0
15 14:35 SW 8 10.00 Fair CLR 91.4 51.8 26% 89 29.93 0.0
15 14:15 S 8 10.00 Fair CLR 91.4 51.8 26% 89 29.93 0.0
15 13:55 SW 8 10.00 Fair CLR 89.6 53.6 29% 87 29.95 0.0
15 13:35 SW 7 10.00 Fair CLR 89.6 53.6 29% 87 29.95 0.0
15 13:15 S 6 10.00 Fair CLR 87.8 51.8 29% 85 29.96 0.0
15 12:55 S 8 10.00 Fair CLR 86 51.8 31% 84 29.97 0.0
15 12:35 S 7 10.00 Fair CLR 86 51.8 31% 84 29.98 0.0
15 12:15 S 8 10.00 Fair CLR 82.4 51.8 35% 81 29.98 0.0
15 11:55 S 9 10.00 Fair CLR 82.4 51.8 35% 81 29.98 0.0
15 11:35 S 9 10.00 Fair CLR 82.4 51.8 35% 81 29.99 0.0
15 11:15 S 10 10.00 Fair CLR 80.6 50 34% 80 29.99 0.0
15 10:55 S 12 10.00 Fair CLR 78.8 50 37% 79 29.99 0.0
15 10:35 S 10 10.00 Fair CLR 78.8 50 37% 79 30 0.0
15 10:15 S 13 10.00 Fair CLR 77 48.2 36% 78 30 0.0
15 09:55 S 10 10.00 Fair CLR 77 48.2 36% 78 30 0.0
15 09:35 S 10 10.00 Fair CLR 73.4 48.2 41% 30.01 0.0
15 09:15 S 12 G 17 10.00 Fair CLR 73.4 50 44% 30.01 0.0
15 08:55 S 12 10.00 Fair CLR 73.4 50 44% 30 0.0
15 08:35 S 14 10.00 Fair CLR 71.6 50 47% 30.01 0.0
15 08:15 S 13 10.00 Fair CLR 69.8 50 50% 30 0.0
15 07:55 S 12 10.00 Fair CLR 68 50 53% 29.99 0.0
15 07:35 S 10 G 18 10.00 Fair CLR 68 50 53% 29.99 0.0
15 07:15 S 12 10.00 Fair CLR 66.2 50 56% 29.98 0.0
15 06:55 S 9 10.00 Fair CLR 64.4 50 60% 29.98 0.0
15 06:35 S 12 10.00 Fair CLR 64.4 50 60% 29.97 0.0
15 06:15 S 12 10.00 Fair CLR 64.4 50 60% 29.96 0.0
15 05:55 S 12 10.00 Fair CLR 64.4 50 60% 29.96 0.0
15 05:35 S 9 10.00 Fair CLR 66.2 48.2 52% 29.95 0.0
15 05:15 S 10 10.00 Fair CLR 66.2 50 56% 29.95 0.0
15 04:55 S 8 10.00 Fair CLR 66.2 50 56% 29.94 0.0
15 04:35 S 9 10.00 Fair CLR 64.4 50 60% 29.94 0.0
15 04:15 S 8 10.00 Fair CLR 64.4 50 60% 29.93 0.0
15 03:55 S 9 10.00 Fair CLR 68 50 53% 29.93 0.0
15 03:35 S 7 10.00 Fair CLR 68 51.8 56% 29.93 0.0
15 03:15 S 8 10.00 Fair CLR 68 51.8 56% 29.92 0.0
15 02:55 S 9 10.00 Fair CLR 69.8 51.8 53% 29.92 0.0
15 02:35 S 9 10.00 Fair CLR 69.8 53.6 57% 29.92 0.0
15 02:15 S 9 10.00 Fair CLR 69.8 53.6 57% 29.92 0.0
15 01:55 S 9 10.00 Fair CLR 69.8 53.6 57% 29.93 0.0
15 01:35 S 8 10.00 Fair CLR 69.8 53.6 57% 29.92 0.0
15 01:15 SE 9 10.00 Fair CLR 71.6 53.6 53% 29.93 0.0
15 00:55 SE 8 10.00 Fair CLR 71.6 53.6 53% 29.92 0.0
15 00:35 S 8 10.00 Fair CLR 71.6 53.6 53% 29.93 0.0
15 00:15 S 8 10.00 Fair CLR 71.6 53.6 53% 29.93 0.0
14 23:55 S 8 10.00 Fair CLR 71.6 53.6 53% 29.93 0.0
14 23:35 S 7 10.00 Fair CLR 73.4 55.4 53% 29.93 0.0
14 23:15 S 7 10.00 Fair CLR 71.6 55.4 57% 29.92 0.0
14 22:55 SW 5 10.00 Fair CLR 75.2 57.2 54% 78 29.91 0.0
Date Time (pdt) Wind (mph) Vis. (mi.) Weather Sky Cond. Air Dwpt Max. Min. Relative Humidity Wind Chill (°F) Heat Index (°F) altimeter (in) sea level (mb) 1 hr 3 hr 6 hr
6 hour
Temperature (ºF) Pressure Precipitation (in)